CW7911 Weather Reports


time (UTC)temp
C
wind
direction
speed
KPH
gust
KPH
rain 1hr
cm
rain 24hr
cm
rain mn
cm
humidity
%
barometer
mb
20260504231740 15 284 0.0 0.0 0.00 0.00 0.00 48 1003.5
20260504231237 16 284 0.0 0.0 0.00 0.00 0.00 47 1003.6
20260504230732 16 284 0.0 0.0 0.00 0.00 0.00 44 1003.2
20260504230231 17 284 0.0 0.0 0.00 0.00 0.00 41 1003.1
20260504225730 17 284 0.0 1.6 0.00 0.00 0.00 41 1003.2
20260504225226 17 284 0.0 0.0 0.00 0.00 0.00 40 1003.2
20260504224723 18 284 0.0 0.0 0.00 0.00 0.00 40 1003.0
20260504224220 18 284 1.6 1.6 0.00 0.00 0.00 33 1002.9
20260504223716 18 284 0.0 3.2 0.00 0.00 0.00 35 1003.0
20260504223212 18 284 1.6 4.8 0.00 0.00 0.00 35 1003.2
20260504222709 18 284 0.0 1.6 0.00 0.00 0.00 37 1003.1
20260504222206 18 284 0.0 0.0 0.00 0.00 0.00 37 1003.1
20260504221703 18 284 0.0 0.0 0.00 0.00 0.00 35 1002.9
20260504221200 18 284 0.0 0.0 0.00 0.00 0.00 37 1003.0
20260504220656 19 284 0.0 0.0 0.00 0.00 0.00 36 1003.0
20260504220154 19 284 0.0 0.0 0.00 0.00 0.00 35 1003.1
20260504215651 19 284 0.0 3.2 0.00 0.00 0.00 33 1003.0
20260504215148 19 284 0.0 1.6 0.00 0.00 0.00 36 1003.0
20260504214643 19 284 0.0 0.0 0.00 0.00 0.00 36 1002.9
20260504214140 19 284 0.0 1.6 0.00 0.00 0.00 35 1002.9
20260504213637 19 284 0.0 0.0 0.00 0.00 0.00 36 1002.9
20260504213134 18 284 0.0 0.0 0.00 0.00 0.00 36 1002.7
20260504212630 19 284 0.0 1.6 0.00 0.00 0.00 33 1003.0
20260504212127 20 284 1.6 3.2 0.00 0.00 0.00 34 1003.2
20260504211625 20 284 0.0 1.6 0.00 0.00 0.00 32 1002.9
20260504211121 20 284 0.0 4.8 0.00 0.00 0.00 33 1003.0
20260504210619 20 284 3.2 9.7 0.00 0.00 0.00 33 1002.9
20260504210114 21 284 3.2 6.4 0.00 0.00 0.00 30 1002.9
20260504205612 20 284 1.6 1.6 0.00 0.00 0.00 31 1002.7
20260504205110 21 284 3.2 9.7 0.00 0.00 0.00 31 1002.8
20260504204608 20 284 1.6 6.4 0.00 0.00 0.00 31 1002.9
20260504204107 20 284 3.2 3.2 0.00 0.00 0.00 31 1002.8
20260504203605 19 284 0.0 3.2 0.00 0.00 0.00 34 1002.7
20260504203102 18 284 1.6 3.2 0.00 0.00 0.00 34 1003.0
20260504202557 19 284 3.2 4.8 0.00 0.00 0.00 33 1002.9
20260504202054 20 284 3.2 16.1 0.00 0.00 0.00 33 1002.9
20260504201551 20 284 0.0 3.2 0.00 0.00 0.00 32 1003.1
20260504201049 19 284 3.2 6.4 0.00 0.00 0.00 32 1003.0
20260504200545 20 284 0.0 0.0 0.00 0.00 0.00 33 1003.0
20260504200042 19 284 3.2 3.2 0.00 0.00 0.00 34 1003.2
20260504195538 18 284 0.0 6.4 0.00 0.00 0.00 35 1003.2
20260504195035 18 284 1.6 3.2 0.00 0.00 0.00 36 1003.2
20260504194531 19 284 4.8 6.4 0.00 0.00 0.00 34 1003.3
20260504194027 18 284 3.2 9.7 0.00 0.00 0.00 36 1003.2
20260504193523 18 284 0.0 6.4 0.00 0.00 0.00 36 1003.3
20260504193022 18 284 1.6 6.4 0.00 0.00 0.00 35 1003.3
20260504192520 19 284 11.3 14.5 0.00 0.00 0.00 35 1003.5
20260504192018 18 284 0.0 9.7 0.00 0.00 0.00 38 1003.2
20260504191516 18 284 3.2 9.7 0.00 0.00 0.00 37 1003.3
20260504191011 17 284 0.0 1.6 0.00 0.00 0.00 40 1003.3
20260504190508 17 284 0.0 3.2 0.00 0.00 0.00 39 1003.4
20260504190004 17 284 0.0 1.6 0.00 0.00 0.00 40 1003.5
20260504185501 17 284 0.0 6.4 0.00 0.00 0.00 41 1003.5
20260504184958 17 284 0.0 6.4 0.00 0.00 0.00 40 1003.6
20260504184453 17 284 1.6 3.2 0.00 0.00 0.00 40 1003.3
20260504183949 17 284 0.0 4.8 0.00 0.00 0.00 40 1003.5
20260504183446 18 284 0.0 6.4 0.00 0.00 0.00 39 1003.6
20260504182944 18 284 0.0 4.8 0.00 0.00 0.00 35 1003.7
20260504182440 18 284 3.2 6.4 0.00 0.00 0.00 35 1003.7
20260504181938 16 284 0.0 3.2 0.00 0.00 0.00 38 1003.7
20260504181435 16 284 3.2 6.4 0.00 0.00 0.00 39 1003.6
20260504180934 16 284 0.0 1.6 0.00 0.00 0.00 40 1003.8
20260504180432 16 284 3.2 6.4 0.00 0.00 0.00 39 1003.7
20260504175930 16 284 6.4 14.5 0.00 0.00 0.00 39 1003.9
20260504175427 16 284 4.8 6.4 0.00 0.00 0.00 40 1003.7
20260504174924 16 284 0.0 1.6 0.00 0.00 0.00 40 1003.8
20260504174422 17 284 3.2 4.8 0.00 0.00 0.00 38 1003.7
20260504173919 17 284 3.2 3.2 0.00 0.00 0.00 37 1003.8
20260504173415 18 284 8.0 9.7 0.00 0.00 0.00 35 1003.7
20260504172913 16 284 0.0 6.4 0.00 0.00 0.00 36 1003.5
20260504172409 16 284 1.6 9.7 0.00 0.00 0.00 38 1003.6
20260504171905 16 284 3.2 4.8 0.00 0.00 0.00 38 1003.8
20260504171403 16 284 0.0 4.8 0.00 0.00 0.00 38 1003.8
20260504170859 16 284 1.6 3.2 0.00 0.00 0.00 36 1003.8
20260504170356 16 284 3.2 3.2 0.00 0.00 0.00 35 1003.6
20260504160315 18 284 3.2 11.3 0.00 0.00 0.00 34 1003.3
20260504150739 15 284 3.2 4.8 0.00 0.00 0.00 40 1004.0
20260504150236 15 284 1.6 11.3 0.00 0.00 0.00 42 1004.3
20260504141206 13 284 3.2 6.4 0.00 0.00 0.00 48 1005.1
20260504140703 13 284 3.2 9.7 0.00 0.00 0.00 48 1005.0
20260504140158 13 284 1.6 11.3 0.00 0.00 0.00 50 1004.9
20260504130626 10 284 0.0 0.0 0.00 0.00 0.00 58 1005.8
20260504130123 9 284 0.0 0.0 0.00 0.00 0.00 61 1005.8
20260504110514 7 284 0.0 0.0 0.00 0.00 0.00 66 1006.2
20260504100436 4 284 0.0 1.6 0.00 0.00 0.00 73 1005.8
20260504081829 2 284 0.0 0.0 0.00 0.00 0.00 73 1006.4
20260504081326 2 284 0.0 0.0 0.00 0.00 0.00 75 1006.4
20260504080822 1 284 0.0 4.8 0.00 0.00 0.00 76 1006.6
20260504080319 1 284 0.0 0.0 0.00 0.00 0.00 79 1006.4
20260504070241 0 284 0.0 0.0 0.00 0.00 0.00 83 1006.3
20260504060202 0 284 0.0 0.0 0.00 0.00 0.00 84 1005.9
20260504050629 0 284 0.0 0.0 0.00 0.00 0.00 86 1006.1
20260504050126 0 284 0.0 0.0 0.00 0.00 0.00 86 1006.2
20260504045624 0 284 0.0 0.0 0.00 0.00 0.00 85 1006.3
20260504045118 0 284 0.0 0.0 0.00 0.00 0.00 85 1006.2
20260504044616 0 284 0.0 0.0 0.00 0.00 0.00 85 1006.0
20260504044113 0 284 0.0 0.0 0.00 0.00 0.00 84 1006.1
20260504043610 0 284 0.0 0.0 0.00 0.00 0.00 84 1006.1
20260504043107 0 284 0.0 0.0 0.00 0.00 0.00 84 1006.1
20260504042604 0 284 0.0 0.0 0.00 0.00 0.00 83 1006.1
20260504042101 0 284 0.0 0.0 0.00 0.00 0.00 83 1005.9
20260504041557 0 284 0.0 0.0 0.00 0.00 0.00 82 1006.0
20260504041053 0 284 0.0 0.0 0.00 0.00 0.00 82 1006.0
20260504040551 0 284 0.0 0.0 0.00 0.00 0.00 82 1006.0
20260504040047 0 284 0.0 0.0 0.00 0.00 0.00 82 1006.1
20260504035544 0 284 0.0 0.0 0.00 0.00 0.00 82 1006.0
20260504035040 0 284 0.0 0.0 0.00 0.00 0.00 81 1006.0
20260504034539 1 284 0.0 0.0 0.00 0.00 0.00 80 1005.8
20260504034035 1 284 0.0 0.0 0.00 0.00 0.00 79 1005.5
20260504033533 1 284 0.0 0.0 0.00 0.00 0.00 79 1005.8
20260504033030 1 284 0.0 0.0 0.00 0.00 0.00 79 1005.7
20260504032527 1 284 0.0 0.0 0.00 0.00 0.00 79 1005.8
20260504032024 1 284 0.0 0.0 0.00 0.00 0.00 79 1005.8
20260504031521 1 284 0.0 0.0 0.00 0.00 0.00 78 1005.8
20260504031017 1 284 0.0 0.0 0.00 0.00 0.00 79 1005.9
20260504030515 1 284 0.0 0.0 0.00 0.00 0.00 79 1005.7
20260504030010 1 284 0.0 0.0 0.00 0.00 0.00 80 1005.6
20260504025508 1 284 0.0 0.0 0.00 0.00 0.00 81 1005.7
20260504025005 1 284 0.0 0.0 0.00 0.00 0.00 80 1005.8
20260504024502 0 284 0.0 0.0 0.00 0.00 0.00 81 1005.7
20260504023959 0 284 0.0 0.0 0.00 0.00 0.00 81 1005.8
20260504023455 0 284 0.0 0.0 0.00 0.00 0.00 81 1005.9
20260504022950 0 284 0.0 0.0 0.00 0.00 0.00 81 1005.8
20260504022447 0 284 0.0 0.0 0.00 0.00 0.00 82 1005.9
20260504021944 0 284 0.0 0.0 0.00 0.00 0.00 82 1005.9
20260504021441 0 284 0.0 0.0 0.00 0.00 0.00 82 1005.8
20260504020938 1 284 0.0 0.0 0.00 0.00 0.00 82 1006.0
20260504020434 1 284 0.0 0.0 0.00 0.00 0.00 81 1005.7
20260504015931 1 284 0.0 0.0 0.00 0.00 0.00 80 1005.9
20260504015427 1 284 0.0 0.0 0.00 0.00 0.00 80 1005.8
20260504014923 1 284 0.0 0.0 0.00 0.00 0.00 79 1005.7
20260504014420 1 284 0.0 0.0 0.00 0.00 0.00 79 1005.7
20260504013916 1 284 0.0 0.0 0.00 0.00 0.00 79 1005.8
20260504013415 1 284 0.0 0.0 0.00 0.00 0.00 78 1005.7
20260504012911 1 284 0.0 0.0 0.00 0.00 0.00 77 1005.7
20260504012409 1 284 0.0 0.0 0.00 0.00 0.00 77 1005.7
20260504011906 2 284 0.0 0.0 0.00 0.00 0.00 77 1005.6
20260504011403 2 284 0.0 0.0 0.00 0.00 0.00 76 1005.5
20260504010859 2 284 0.0 0.0 0.00 0.00 0.00 76 1005.6
20260504010354 2 284 0.0 0.0 0.00 0.00 0.00 75 1005.7
20260504005845 2 284 0.0 0.0 0.00 0.00 0.00 75 1005.3
20260504005342 2 284 0.0 0.0 0.00 0.00 0.00 74 1005.3
20260504004840 2 284 0.0 0.0 0.00 0.00 0.00 74 1005.4
20260504004337 2 284 0.0 0.0 0.00 0.00 0.00 73 1005.2
20260504003833 3 284 0.0 0.0 0.00 0.00 0.00 72 1005.1
20260504003330 3 284 0.0 0.0 0.00 0.00 0.00 71 1005.2
20260504002827 3 284 0.0 0.0 0.00 0.00 0.00 70 1005.1
20260504002324 3 284 0.0 0.0 0.00 0.00 0.00 68 1005.1
20260504001822 4 284 0.0 0.0 0.00 0.00 0.00 68 1005.1
20260504001319 4 284 0.0 0.0 0.00 0.00 0.00 67 1005.0
20260504000815 5 284 0.0 0.0 0.00 0.00 0.00 64 1004.7
20260504000312 5 284 0.0 0.0 0.00 0.00 0.00 62 1004.7
20260503235810 6 284 0.0 0.0 0.00 0.00 0.00 58 1004.6
20260503235308 6 284 0.0 0.0 0.00 0.00 0.00 54 1004.7
20260503234805 6 284 0.0 1.6 0.00 0.00 0.00 54 1004.5
20260503234303 7 284 0.0 0.0 0.00 0.00 0.00 56 1004.5
20260503233800 7 284 0.0 0.0 0.00 0.00 0.00 50 1004.6
20260503233255 7 284 0.0 1.6 0.00 0.00 0.00 48 1004.5
20260503232753 7 284 0.0 6.4 0.00 0.00 0.00 46 1004.0
20260503232250 7 284 1.6 4.8 0.00 0.00 0.00 45 1004.1